Date String (YYYY-MM-DD hh:mm:ss) UTC,Instrument flags,Ambient pressure (hPa),Sample flow (lpm),Bypass flow (lpm),Sample temperature (°C),Ambient temperature (°C),ASC tube jacket temperature (°C),LED temperature (°C),Box temperature (°C),Sample RH (%),Span deviation,Mass concentration (μg/m³),Mass concentration (μg/m³),Mass concentration (μg/m³)
DateTimeUTC,F1_M11,P_M11,Q1_M11,Q2_M11,T1_M11,T2_M11,T3_M11,T4_M11,T5_M11,U1_M11,ZSPAN_M11,X0_M11,X2_M11,X1_M11
2022-01-27 13:00:00,,0829.9,4.99,0.00,21.2,22.5,00.0,30.2,23.1,07.7,0000.0,0004.06,0001.81,0001.53
2022-01-27 13:01:00,,0829.9,5.00,0.00,21.4,22.6,00.0,30.2,23.2,07.6,0000.0,0004.06,0001.80,0001.52
2022-01-27 13:02:00,,0829.9,5.01,0.00,21.4,22.1,00.0,30.2,23.1,07.6,0000.0,0003.99,0001.79,0001.53
2022-01-27 13:03:00,,0829.9,5.00,0.00,21.3,21.6,00.0,30.2,22.8,07.6,0000.0,0004.14,0001.81,0001.54
2022-01-27 13:04:00,,0829.9,4.99,0.00,21.2,21.2,00.0,30.2,22.6,07.7,0000.0,0004.13,0001.81,0001.56
2022-01-27 13:05:00,,0830.0,5.00,0.00,21.1,20.8,00.0,30.2,22.5,07.7,0000.0,0003.40,0001.85,0001.57
2022-01-27 13:06:00,,0830.0,5.01,0.00,21.0,20.4,00.0,30.2,22.3,07.8,0000.0,0002.75,0001.84,0001.57
2022-01-27 13:07:00,,0830.0,5.00,0.00,20.9,20.2,00.0,30.1,22.2,07.8,0000.0,0002.80,0001.81,0001.57
2022-01-27 13:08:00,,0830.0,5.01,0.00,20.8,20.2,00.0,30.1,22.1,07.8,0000.0,0003.00,0001.84,0001.59
2022-01-27 13:09:00,,0830.0,5.00,0.00,20.9,21.0,00.0,30.1,22.5,07.8,0000.0,0004.49,0001.86,0001.60
2022-01-27 13:10:00,,0830.0,4.99,0.00,21.1,21.9,00.0,30.1,22.9,07.8,0000.0,0004.39,0001.84,0001.60
2022-01-27 13:11:00,,0830.0,5.00,0.00,21.3,22.7,00.0,30.2,23.2,07.7,0000.0,0004.39,0001.85,0001.61
2022-01-27 13:12:00,,0830.1,5.01,0.00,21.4,22.4,00.0,30.2,23.2,07.6,0000.0,0004.38,0001.85,0001.61
2022-01-27 13:13:00,,0830.1,4.98,0.00,21.3,21.9,00.0,30.2,23.0,07.6,0000.0,0004.43,0001.89,0001.63
2022-01-27 13:14:00,,0830.0,4.99,0.00,21.2,21.4,00.0,30.2,22.7,07.7,0000.0,0004.37,0001.91,0001.64
2022-01-27 13:15:00,,0830.1,5.01,0.00,21.1,21.0,00.0,30.2,22.5,07.7,0000.0,0004.35,0001.94,0001.66
2022-01-27 13:16:00,,0830.0,5.01,0.00,21.0,20.6,00.0,30.2,22.4,07.8,0000.0,0005.60,0001.94,0001.66
2022-01-27 13:17:00,,0830.0,4.98,0.00,20.9,20.3,00.0,30.1,22.2,07.8,0000.0,0006.48,0001.95,0001.67
2022-01-27 13:18:00,,0830.0,5.00,0.00,20.8,20.0,00.0,30.1,22.1,07.8,0000.0,0006.28,0001.96,0001.68
2022-01-27 13:19:00,,0830.0,5.01,0.00,20.8,20.3,00.0,30.1,22.1,07.9,0000.0,0006.50,0001.97,0001.68
2022-01-27 13:20:00,,0830.1,5.00,0.00,20.9,21.3,00.0,30.1,22.6,07.8,0000.0,0005.21,0001.99,0001.67
2022-01-27 13:21:00,,0830.1,5.00,0.00,21.1,22.2,00.0,30.1,23.0,07.7,0000.0,0005.32,0002.05,0001.69
2022-01-27 13:22:00,,0830.1,5.01,0.00,21.3,22.7,00.0,30.2,23.2,07.7,0000.0,0005.58,0002.05,0001.70
2022-01-27 13:23:00,,0830.2,4.99,0.00,21.3,22.2,00.0,30.2,23.0,07.7,0000.0,0005.64,0002.07,0001.73
2022-01-27 13:24:00,,0830.1,5.00,0.00,21.2,21.6,00.0,30.2,22.7,07.7,0000.0,0006.44,0002.05,0001.73
2022-01-27 13:25:00,,0830.1,4.99,0.00,21.1,21.1,00.0,30.2,22.5,07.8,0000.0,0006.69,0002.03,0001.72
2022-01-27 13:26:00,,0830.2,5.01,0.00,21.0,20.7,00.0,30.2,22.3,07.8,0000.0,0006.74,0002.03,0001.71
2022-01-27 13:27:00,,0830.2,5.00,0.00,20.9,20.4,00.0,30.1,22.2,07.8,0000.0,0006.26,0002.03,0001.72
2022-01-27 13:28:00,,0830.2,4.98,0.00,20.8,20.1,00.0,30.1,22.1,07.9,0000.0,0004.65,0002.03,0001.73
2022-01-27 13:29:00,,0830.3,5.00,0.00,20.7,19.9,00.0,30.0,21.9,07.9,0000.0,0004.59,0002.00,0001.73
2022-01-27 13:30:00,,0830.4,4.99,0.00,20.7,20.4,00.0,30.0,22.1,07.9,0000.0,0004.62,0002.03,0001.75
2022-01-27 13:31:00,,0830.4,5.01,0.00,21.0,22.0,00.0,30.1,22.8,07.8,0000.0,0003.96,0001.96,0001.77
2022-01-27 13:32:00,,0830.4,4.99,0.00,21.1,22.5,00.0,30.1,23.0,07.8,0000.0,0003.94,0001.97,0001.78
2022-01-27 13:33:00,,0830.4,5.01,0.00,21.3,22.7,00.0,30.2,23.2,07.7,0000.0,0003.81,0002.00,0001.79
2022-01-27 13:34:00,,0830.4,5.01,0.00,21.3,22.2,00.0,30.2,23.0,07.7,0000.0,0004.61,0002.03,0001.79
2022-01-27 13:35:00,,0830.4,4.99,0.00,21.2,21.7,00.0,30.2,22.8,07.7,0000.0,0004.63,0002.07,0001.79
2022-01-27 13:36:00,,0830.4,4.99,0.00,21.2,21.3,00.0,30.2,22.7,07.8,0000.0,0004.16,0002.11,0001.80
2022-01-27 13:37:00,,0830.4,5.02,0.00,21.1,20.9,00.0,30.1,22.5,07.8,0000.0,0004.10,0002.11,0001.82
2022-01-27 13:38:00,,0830.5,4.99,0.00,21.0,20.6,00.0,30.1,22.3,07.9,0000.0,0004.13,0002.12,0001.84
2022-01-27 13:39:00,,0830.6,5.00,0.00,20.9,20.3,00.0,30.1,22.1,07.9,0000.0,0004.10,0002.12,0001.84
2022-01-27 13:40:00,,0830.5,5.01,0.00,20.8,20.3,00.0,30.0,22.1,08.0,0000.0,0004.22,0002.14,0001.84
2022-01-27 13:41:00,,0830.5,5.00,0.00,20.9,21.1,00.0,30.1,22.4,08.0,0000.0,0004.25,0002.15,0001.85
2022-01-27 13:42:00,,0830.5,5.00,0.00,21.1,22.0,00.0,30.1,22.8,07.9,0000.0,0004.40,0002.19,0001.85
2022-01-27 13:43:00,,0830.6,5.00,0.00,21.3,22.7,00.0,30.2,23.2,07.8,0000.0,0004.45,0002.20,0001.85
2022-01-27 13:44:00,,0830.6,5.01,0.00,21.3,22.5,00.0,30.2,23.1,07.8,0000.0,0004.33,0002.16,0001.85
2022-01-27 13:45:00,,0830.6,4.99,0.00,21.3,21.9,00.0,30.2,22.9,07.8,0000.0,0003.50,0002.16,0001.86
2022-01-27 13:46:00,,0830.5,5.00,0.00,21.2,21.3,00.0,30.2,22.7,07.8,0000.0,0003.03,0002.12,0001.86
2022-01-27 13:47:00,,0830.6,5.01,0.00,21.1,20.9,00.0,30.2,22.4,07.9,0000.0,0002.92,0002.10,0001.86
2022-01-27 13:48:00,,0830.6,5.00,0.00,21.0,20.5,00.0,30.1,22.3,07.9,0000.0,0002.91,0002.11,0001.86
2022-01-27 13:49:00,,0830.6,5.00,0.00,20.9,20.2,00.0,30.1,22.2,08.0,0000.0,0002.88,0002.11,0001.86
2022-01-27 13:50:00,,0830.7,5.00,0.00,20.8,20.1,00.0,30.1,22.1,08.1,0000.0,0003.02,0002.14,0001.85
2022-01-27 13:51:00,,0830.7,4.99,0.00,20.9,20.9,00.0,30.1,22.4,08.1,0000.0,0003.03,0002.14,0001.85
2022-01-27 13:52:00,,0830.8,4.99,0.00,21.1,21.9,00.0,30.1,22.8,08.0,0000.0,0003.02,0002.13,0001.84
2022-01-27 13:53:00,,0830.8,5.00,0.00,21.2,22.4,00.0,30.2,23.1,07.9,0000.0,0002.94,0002.13,0001.84
2022-01-27 13:54:00,,0830.7,5.01,0.00,21.3,22.1,00.0,30.2,23.0,07.9,0000.0,0002.92,0002.12,0001.83
2022-01-27 13:55:00,,0830.7,5.01,0.00,21.2,21.7,00.0,30.2,22.9,07.9,0000.0,0003.07,0002.13,0001.83
2022-01-27 13:56:00,,0830.7,4.99,0.00,21.2,21.3,00.0,30.2,22.7,07.9,0000.0,0003.03,0002.12,0001.82
2022-01-27 13:57:00,,0830.8,4.99,0.00,21.1,21.0,00.0,30.1,22.6,08.0,0000.0,0003.04,0002.12,0001.82
2022-01-27 13:58:00,,0830.7,4.99,0.00,21.1,20.7,00.0,30.1,22.5,08.1,0000.0,0003.12,0002.16,0001.83
2022-01-27 13:59:00,,0830.7,5.01,0.00,21.0,20.5,00.0,30.1,22.4,08.1,0000.0,0003.13,0002.16,0001.85
